TimeEDT,TemperatureF,Dew PointF,Humidity,Sea Level PressureIn,VisibilityMPH,Wind Direction,Wind SpeedMPH,Gust SpeedMPH,PrecipitationIn,Events,Conditions,WindDirDegrees,DateUTC
12:10 AM,28.4,28.4,100,29.86,0.2,WNW,4.6,-,N/A,Fog,Light Freezing Fog,300,2013-03-17 04:10:00
12:54 AM,30.0,28.9,96,29.93,0.2,Calm,Calm,-,N/A,Fog,Light Freezing Fog,0,2013-03-17 04:54:00
1:46 AM,28.4,28.4,100,29.87,1.0,WNW,10.4,-,N/A,,Mist,300,2013-03-17 05:46:00
1:50 AM,28.4,28.4,100,29.88,3.0,WNW,9.2,-,N/A,,Overcast,290,2013-03-17 05:50:00
1:54 AM,28.9,27.0,92,29.95,3.0,NW,11.5,-,N/A,,Overcast,310,2013-03-17 05:54:00
2:11 AM,28.4,26.6,93,29.89,5.0,NW,12.7,-,N/A,,Overcast,310,2013-03-17 06:11:00
2:20 AM,28.4,26.6,93,29.89,6.0,WNW,13.8,-,N/A,,Overcast,300,2013-03-17 06:20:00
2:54 AM,27.0,25.0,92,29.96,6.0,NW,12.7,-,N/A,,Overcast,310,2013-03-17 06:54:00
3:54 AM,27.0,25.0,92,29.97,6.0,WNW,8.1,-,N/A,,Overcast,290,2013-03-17 07:54:00
4:43 AM,26.6,24.8,93,29.90,10.0,WNW,11.5,-,N/A,,Overcast,290,2013-03-17 08:43:00
4:54 AM,27.0,24.1,89,29.98,10.0,NW,9.2,-,N/A,,Overcast,310,2013-03-17 08:54:00
5:41 AM,24.8,23.0,93,29.94,9.0,NNW,10.4,18.4,N/A,,Overcast,330,2013-03-17 09:41:00
5:54 AM,25.0,23.0,92,30.02,7.0,NNW,15.0,-,N/A,,Overcast,340,2013-03-17 09:54:00
6:31 AM,23.0,19.4,86,29.96,10.0,NNW,12.7,-,N/A,,Overcast,330,2013-03-17 10:31:00
6:54 AM,21.9,19.0,89,30.06,10.0,NW,12.7,-,N/A,,Overcast,320,2013-03-17 10:54:00
7:35 AM,21.2,17.6,86,30.01,10.0,NNW,11.5,-,N/A,,Overcast,330,2013-03-17 11:35:00
7:54 AM,21.9,17.1,82,30.10,10.0,NNW,8.1,-,N/A,,Overcast,330,2013-03-17 11:54:00
8:54 AM,23.0,17.1,78,30.13,10.0,North,3.5,-,N/A,,Overcast,350,2013-03-17 12:54:00
9:54 AM,24.1,18.0,77,30.14,8.0,NNE,4.6,-,N/A,,Overcast,20,2013-03-17 13:54:00
10:54 AM,25.0,18.0,75,30.15,10.0,West,4.6,-,N/A,,Mostly Cloudy,280,2013-03-17 14:54:00
11:04 AM,24.8,17.6,74,30.08,10.0,Calm,Calm,-,N/A,,Scattered Clouds,0,2013-03-17 15:04:00
11:15 AM,24.8,17.6,74,30.07,10.0,Variable,5.8,-,N/A,,Mostly Cloudy,0,2013-03-17 15:15:00
11:54 AM,26.1,18.0,71,30.16,10.0,West,8.1,-,N/A,,Overcast,280,2013-03-17 15:54:00
12:54 PM,28.0,18.0,66,30.16,10.0,NW,9.2,-,N/A,,Overcast,320,2013-03-17 16:54:00
1:54 PM,28.0,18.0,66,30.15,10.0,NW,10.4,-,N/A,,Mostly Cloudy,310,2013-03-17 17:54:00
2:54 PM,28.9,18.0,64,30.15,10.0,North,6.9,-,N/A,,Mostly Cloudy,350,2013-03-17 18:54:00
3:54 PM,28.9,18.0,64,30.16,10.0,West,4.6,-,N/A,,Overcast,280,2013-03-17 19:54:00
4:54 PM,28.9,19.0,67,30.17,10.0,North,4.6,-,N/A,,Overcast,10,2013-03-17 20:54:00
5:54 PM,28.9,18.0,64,30.17,10.0,Calm,Calm,-,N/A,,Partly Cloudy,0,2013-03-17 21:54:00
6:54 PM,28.9,19.0,67,30.19,10.0,ENE,4.6,-,N/A,,Partly Cloudy,70,2013-03-17 22:54:00
7:54 PM,27.0,19.0,72,30.21,10.0,NE,4.6,-,N/A,,Clear,50,2013-03-17 23:54:00
8:54 PM,27.0,19.0,72,30.22,10.0,ENE,5.8,-,N/A,,Clear,60,2013-03-18 00:54:00
9:54 PM,26.1,19.0,75,30.22,10.0,East,5.8,-,N/A,,Clear,80,2013-03-18 01:54:00
10:54 PM,25.0,18.0,75,30.22,10.0,Variable,4.6,-,N/A,,Clear,0,2013-03-18 02:54:00
11:54 PM,25.0,18.0,75,30.21,10.0,East,5.8,-,N/A,,Clear,90,2013-03-18 03:54:00